Overview Statistics Trail Chart Weather Telemetry Raw packets
 

This is the latest recevied weather packets stored in our database for station/object IW2NIA-3. If no packets are shown the sender has not sent any weather packets the latest 10 day(s).

<< 19 20 21 22 23 24 25 >>
Time Temp. Humidity Pressure Rain* Wind** Luminosity Snow
1788205711 24.44° C 76% 1013.5 hPa 0 mm - - -
1788204826 24.44° C 75% 1013.5 hPa 0 mm - - -
1788203906 25° C 73% 1013.4 hPa 0 mm - - -
1788203022 25.56° C 72% 1013.3 hPa 0 mm - - -
1788202108 25.56° C 72% 1013.1 hPa 0 mm - - -
1788201223 26.11° C 72% 1012.9 hPa 0 mm - - -
1788200311 26.11° C 69% 1012.8 hPa 0 mm - - -
1788199409 27.22° C 65% 1012.8 hPa 0 mm - - -
1788198524 28.33° C 55% 1012.7 hPa 0 mm - - -
1788197621 28.89° C 48% 1012.6 hPa 0 mm - - -
1788196717 29.44° C 48% 1012.6 hPa 0 mm - - -
1788195811 29.44° C 48% 1012.6 hPa 0 mm - - -
1788194924 30° C 46% 1012.7 hPa 0 mm - - -
1788194020 30° C 48% 1012.7 hPa 0 mm - - -
1788193118 30.56° C 47% 1012.7 hPa 0 mm - - -
1788192228 30.56° C 45% 1012.8 hPa 0 mm - - -
1788191323 31.11° C 47% 1013 hPa 0 mm - - -
1788190413 30.56° C 46% 1013 hPa 0 mm - - -
1788189528 31.11° C 46% 1013.1 hPa 0 mm - - -
1788188624 31.11° C 47% 1013.2 hPa 0 mm - - -
1788187716 30.56° C 45% 1013.1 hPa 0 mm - - -
1788186810 30.56° C 46% 1013.2 hPa 0 mm - - -
1788185924 31.11° C 46% 1013.2 hPa 0 mm - - -
1788185020 30.56° C 47% 1013.2 hPa 0 mm - - -
1788184108 31.11° C 51% 1013.2 hPa 0 mm - - -

* Rain latest hour (hover to see other rain measurements)
** Current wind speed in m/s (hover to see current wind gust speed)